Tracking 19576 objects as of 16-Feb-2019
HD Live streaming from Space Station
objects crossing your sky now

APSTAR 1

Track APSTAR 1 now!
APSTAR 1 is classified as:


NORAD ID: 23185
Int'l Code: 1994-043A
Perigee: 36,008.3 km
Apogee: 36,085.2 km
Inclination: 10.6 °
Period: 1,449.0 minutes
Semi major axis: 42417 km
RCS: 25.1188 m2 (large)
Launch date: July 21, 1994
Source: People's Republic of China (PRC)
Launch site: Xichang Space Center, China (XSC)

24 C-band transponders.
aabbcc
Your satellite tracking list
Your tracking list is empty




NASA's NSSDC Master Catalog

Two Line Element Set (TLE):
1 23185U 94043A   19046.90075255 -.00000203  00000-0  00000+0 0  9997
2 23185  10.5885  35.7791 0009063 310.4178  57.5608  0.99375969 89827
Source of the keplerian elements: AFSPC